Regional Weather Roundup
Issued by NWS

Home | Current Version | Previous Version | Graphics & Text | Print | Product List | Glossary On
Versions: 1 2 3 4 5 6 7 8 9 10 11 12 13 14 15 16 17 18 19 20 21 22 23 24 25 26 27 28 29 30 31 32 33 34 35 36 37 38 39 40 41 42 43 44 45 46 47 48 49 50
000
ASUS43 KOAX 181002
RWRNE

WEATHER ROUNDUP FOR NEBRASKA
NATIONAL WEATHER SERVICE OMAHA NE
500 AM CDT FRI APR 18 2014

NOTES: SATELLITE DATA IS BEING USED TO AUGMENT CLOUD COVER ABOVE
       12000 FEET.
       "FAIR" INDICATES FEW OR NO CLOUDS BELOW 12,000 FEET WITH NO
       SIGNIFICANT WEATHER AND/OR OBSTRUCTIONS TO VISIBILITY.

  * THESE STATIONS DO NOT REPORT WEATHER SUCH AS RAIN...SNOW OR FOG.

NEZ001>004-019>022-054>056-181100-
NEBRASKA PANHANDLE

CITY           SKY/WX    TMP DP  RH WIND       PRES   REMARKS
SCOTTSBLUFF    CLEAR     41  34  76 SE10      29.92S
ALLIANCE       PTCLDY    38  34  85 SE10      29.92F WCI  31
CHADRON        PTCLDY    43  35  73 CALM      29.86S
KIMBALL        PTCLDY    38  33  81 S6        29.96R WCI  33
SIDNEY         PTCLDY    38  33  82 S9        29.97F WCI  31
$$

NEZ057>060-069>072-079>082-181100-
SOUTHWEST NEBRASKA

CITY           SKY/WX    TMP DP  RH WIND       PRES   REMARKS
NORTH PLATTE   CLEAR     41  36  82 S13       30.07F
IMPERIAL       CLEAR     40  35  83 S14       30.05F WCI  32
LEXINGTON      CLEAR     40  37  87 S12       30.14S WCI  34
MCCOOK         CLEAR     38  36  92 S9        30.13S FOG     WCI  31
OGALLALA       CLEAR     39  36  86 S13       30.02F WCI  32
$$

NEZ005>010-023>029-035>040-094-181100-
NORTH CENTRAL NEBRASKA

CITY           SKY/WX    TMP DP  RH WIND       PRES   REMARKS
VALENTINE      CLEAR     42  33  70 S18       29.98F
AINSWORTH      CLEAR     39  32  76 S15       30.02F WCI  30
BROKEN BOW     CLEAR     36  31  82 S10       30.10F WCI  28
O`NEILL        PTCLDY    37  26  67 SE8       30.12F WCI  30
ORD            CLEAR     34  28  79 SE6       30.14S WCI  29
THEDFORD       CLEAR     42  36  79 S13G18    30.03F
$$

NEZ041-046>049-061>064-073>077-083>087-181100-
SOUTH CENTRAL NEBRASKA

CITY           SKY/WX    TMP DP  RH WIND       PRES   REMARKS
GRAND ISLAND   CLEAR     39  29  67 S13       30.19S WCI  31
AURORA         CLEAR     36  29  76 S9        30.20S WCI  29
HASTINGS       CLEAR     38  29  70 S9        30.18S WCI  31
HEBRON         PTCLDY    34  29  83 SE3       30.23F HAZE
HOLDREGE       CLEAR     38  33  82 S10       30.16S WCI  31
KEARNEY *      CLEAR     37  32  81 S10       30.17S WCI  30
YORK           PTCLDY    36  28  75 S9        30.21S WCI  29
$$

NEZ011>018-030>034-042>045-181100-
NORTHEAST NEBRASKA

CITY           SKY/WX    TMP DP  RH WIND       PRES   REMARKS
NORFOLK        CLEAR     37  27  67 S12       30.19S WCI  29
ALBION         PTCLDY    35  27  72 SE8       30.18S WCI  29
BLAIR          CLEAR     38  26  64 SE5       30.24S WCI  34
COLUMBUS *     CLEAR     36  27  69 S6        30.22S WCI  31
FREMONT        CLEAR     38  29  70 S5        30.23F WCI  34
TEKAMAH        CLEAR     26  19  74 CALM      30.25F
$$

NEZ050>053-065>068-078-088>093-181100-
SOUTHEAST NEBRASKA

CITY           SKY/WX    TMP DP  RH WIND       PRES   REMARKS
LINCOLN        CLEAR     35  26  69 SE6       30.25F WCI  30
OMAHA EPPLEY   PTCLDY    32  27  81 CALM      30.27R
BEATRICE       PTCLDY    33  28  82 CALM      30.25S HAZE
FALLS CITY     CLEAR     34  29  82 CALM      30.27R
PLATTSMOUTH    CLEAR     38  28  66 S7        30.25S WCI  33
$$

NEZ044-045-051>053-067-181100-
OMAHA AREA

CITY           SKY/WX    TMP DP  RH WIND       PRES   REMARKS
OMAHA EPPLEY   PTCLDY    32  27  81 CALM      30.27R
BLAIR          CLEAR     38  26  64 SE5       30.24S WCI  34
FREMONT        CLEAR     38  29  70 S5        30.23F WCI  34
MILLARD        CLEAR     33  28  83 CALM      30.25S
OFFUTT AFB     CLEAR     27  26  99 E3        30.26R
PLATTSMOUTH    CLEAR     38  28  66 S7        30.25S WCI  33
$$



USA.gov is the U.S. government's official web portal to all federal, state and local government web resources and services.